#timestamp,LO_Frequency,Hit,StdDev 
1541401215.5,286046998.3,N
1541401235.3,286046996.9,N
1541401255.1,286046999.3,N
1541401275.9,286047000.7,N
1541401295.7,286047002.6,N
1541401315.5,286047002.1,N
1541401335.4,286047006.0,N
1541401355.2,286047003.6,N
1541401375.0,286047005.0,N
1541401376.0,286047005.0,N
1541401395.8,286047002.9,N
1541401415.6,286047001.3,N
1541401435.5,286046998.5,N
1541401455.3,286046997.2,N
1541401475.1,286046995.9,N
1541401495.9,286046996.3,N
1541401515.7,286046996.4,N
1541401535.5,286046995.3,N
1541401555.4,286046996.6,N
1541401575.2,286046997.8,N
1541401595.1,286046997.5,N
1541401596.0,286046997.5,N
1541401615.8,286046999.5,N
1541401635.6,286047002.3,N
1541401655.5,286047007.6,N
1541401675.3,286047006.8,N
1541401695.1,286047008.2,N
1541401715.9,286047009.4,N
1541401735.7,286047010.9,N
1541401755.6,286047012.5,N
1541401775.4,286047011.1,N
1541401795.2,286047013.7,N
1541401815.1,286047013.4,N
1541401816.0,286047013.4,N
1541401835.8,286047012.7,N
1541401855.6,286047012.8,N
1541401875.5,286047013.0,N
1541401895.3,286047015.2,N
1541401915.2,286047011.9,N
1541401935.9,286047011.6,N
1541401955.7,286047012.3,N
1541401975.6,286047011.7,N
1541401995.4,286047013.2,N
1541402015.2,286047013.6,N
1541402035.1,286047013.6,N
1541402036.0,286047013.6,N
1541402055.8,286047013.2,N
1541402075.7,286047013.4,N
1541402095.5,286047015.5,N
1541402115.3,286047012.9,N
1541402135.2,286047013.4,N
1541402155.0,286047012.7,N
1541402155.9,286047012.7,Y
1541402175.7,286047001.3,P
1541402195.6,286047003.1,N
1541402215.4,286047005.7,N
1541402235.3,286047007.5,N
1541402255.1,286047007.3,N
1541402256.0,286047007.3,N
1541402275.8,286047009.0,N
1541402295.7,286047009.9,Y
1541402315.5,286047007.6,P
1541402335.3,286047006.4,P
1541402355.2,286047007.1,P
1541402375.0,286047008.8,Y
1541402375.9,286047008.8,P
1541402395.8,286047001.0,N
1541402415.6,286047001.5,N
1541402435.4,286047001.7,N
1541402455.3,286047005.9,N
1541402475.1,286047004.6,N
1541402495.8,286047005.9,N
1541402515.7,286047007.1,N
1541402535.5,286047009.0,Y
1541402555.4,286047001.9,P
1541402575.2,286047002.6,N
1541402595.0,286047003.5,N
1541402595.9,286047003.5,Y
1541402615.8,286047003.9,P
1541402635.6,286047003.4,P
1541402655.5,286047004.3,P
1541402675.3,286047001.3,N
1541402695.1,286047001.6,N
1541402715.9,286047004.2,Y
1541402735.7,286047000.6,P
1541402755.5,286046999.7,N
1541402775.4,286047005.1,P
1541402795.2,286047006.2,N
1541402815.1,286047004.9,N
1541402816.0,286047004.9,N
1541402835.8,286047010.3,Y
1541402855.6,286047012.3,P
1541402875.5,286047011.7,N
1541402895.3,286047013.7,P
1541402915.2,286047014.8,Y
1541402935.9,286047003.9,P
1541402955.7,286047002.9,N
1541402975.6,286047005.6,N
1541402995.4,286047005.9,N
1541403015.3,286047003.6,N
1541403035.1,286047005.8,N
1541403036.0,286047005.8,N
1541403055.8,286047002.1,N
1541403075.7,286046998.9,N
1541403095.5,286046992.3,N
1541403115.4,286046985.6,Y
1541403135.2,286046981.6,P
1541403155.0,286046981.9,N
1541403155.9,286046981.9,N
1541403175.8,286046977.7,N
1541403195.6,286046979.6,N
1541403215.4,286046980.4,N
1541403235.3,286046981.1,N
1541403255.1,286046977.5,N
1541403275.9,286046978.2,N
1541403295.7,286046977.7,Y
1541403315.5,286046988.1,P
1541403335.4,286046982.5,P
1541403355.2,286046982.9,P
1541403375.0,286046983.5,Y
1541403376.0,286046983.5,P
1541403395.8,286046997.2,P
1541403415.6,286046998.8,N
1541403435.5,286047001.1,N
1541403455.3,286046998.2,N
1541403475.1,286046999.2,N
1541403495.9,286046997.1,N
1541403515.7,286046995.9,N
1541403535.5,286046991.9,N
1541403555.4,286046997.9,N
1541403575.2,286046993.1,N
1541403595.1,286046994.3,N
1541403596.0,286046994.3,N
1541403615.8,286046989.0,N
1541403635.6,286046986.5,N
1541403655.5,286046983.8,Y
1541403675.3,286046990.4,P
1541403695.1,286046991.9,P
1541403715.9,286046992.6,P
1541403735.7,286046992.4,Y
1541403755.6,286047001.2,P
1541403775.4,286047001.4,N
1541403795.2,286047006.1,N
1541403815.1,286047010.5,N
1541403816.0,286047010.5,N
1541403835.8,286047009.3,N
1541403855.6,286047012.2,N
1541403875.5,286047013.0,N
1541403895.3,286047015.5,N
1541403915.2,286047014.3,N
1541403935.9,286047016.4,N
1541403955.7,286047018.2,N
1541403975.6,286047020.3,N
1541403995.4,286047018.2,N
1541404015.2,286047017.4,N
1541404035.1,286047017.8,N
1541404036.0,286047017.8,N
1541404055.8,286047020.1,N
1541404075.7,286047020.0,N
1541404095.5,286047017.6,N
1541404115.3,286047014.2,N
1541404135.2,286047014.0,N
1541404155.0,286047012.3,N
1541404155.9,286047012.3,N
1541404175.7,286047010.7,N
1541404195.6,286047010.2,N
1541404215.4,286047010.9,N
1541404235.3,286047013.3,N
1541404255.1,286047016.8,N
1541404256.0,286047016.8,N
1541404275.8,286047017.2,Y
1541404295.7,286047001.0,P
1541404315.5,286046997.3,N
1541404335.4,286046997.3,N
1541404355.2,286046998.5,N
1541404375.0,286046998.1,N
1541404375.9,286046998.1,N
1541404395.8,286046999.4,N
1541404415.6,286046999.3,N
1541404435.4,286046999.3,N
1541404455.3,286047000.9,N
1541404475.1,286046999.8,N
1541404495.8,286047002.0,N
1541404515.7,286047003.9,N
1541404535.5,286047005.2,N
1541404555.4,286047010.2,N
1541404575.2,286047007.8,N
1541404595.0,286047011.0,N
1541404595.9,286047011.0,N
1541404615.8,286047009.7,N
1541404635.6,286047002.9,N
1541404655.4,286046999.7,N
1541404675.3,286046998.5,N
1541404695.1,286046999.2,N
1541404715.9,286047000.9,N
1541404735.7,286046995.4,N
1541404755.5,286046992.1,N
1541404775.4,286046989.5,N
1541404795.2,286046989.9,N
